Dewpoint
69 66 66 68 68 68 67 68 69 70 70 69 70 68 66 69 69 69 69 68 68 66
69 68 67 68 68 68 69 68 68 69 71 70 70 69 70 70 69 70 69 68 68 67
69 69 68 68 68 67 68 69 67 68 69 70 71 71 69 70 70 68 69 69 69 68
69 69 70 69 69 69 69 68 68 70 70 70 70 70 70 69 69 69 69 69 68 68
69 70 70 69 70 70 70 69 68 69 68 68 69 70 70 70 70 69 68 67 68 68
69 70 70 70 70 70 71 70 69 68 67 67 66 67 70 70 70 69 69 69 69 68
68 68 69 70 70 71 71 70 69 68 67 66 65 64 67 69 70 70 69 70 70 69
68 68 68 68 68 70 71 71 70 69 69 69 69 70 70 70 70 70 70 70 69 70
66 66 66 66 67 67 67 69 70 71 71 70 71 72 71 70 70 70 70 70 70 70
65 64 64 64 64 65 65 66 67 68 70 70 70 71 70 69 70 70 69 70 69 70
63 63 63 63 62 63 63 63 65 66 66 67 69 68 68 68 68 69 68 68 69 69
58 61 60 61 61 62 59 59 60 64 66 67 68 63 65 68 69 69 69 70 70 69
51 53 54 55 57 60 57 58 60 62 67 65 63 59 59 62 64 61 62 65 67 66
48 48 49 52 54 53 54 53 62 64 64 63 62 61 57 56 55 55 54 57 59 62
Wind_Speed
10 11 11 10 11 14 12 10 7 9 9 9 7 6 6 4 3 3 1 3 1 1
12 11 11 11 9 10 10 12 11 9 10 10 9 7 5 6 4 3 4 2 2 1
14 13 11 8 10 10 10 10 10 11 12 10 9 7 6 6 5 6 6 5 4 1
13 13 12 11 11 9 9 11 11 10 8 10 9 8 8 9 8 8 6 5 6 7
10 11 13 13 13 12 10 9 12 11 9 10 11 9 10 11 11 10 10 10 6 9
4 9 14 15 14 14 13 10 11 13 13 13 14 12 12 13 13 12 11 11 10 10
10 9 8 8 11 12 14 14 13 13 16 14 12 12 13 13 12 12 12 13 12 13
11 13 14 12 10 7 4 9 12 15 15 15 13 12 14 13 14 13 13 14 14 14
9 12 13 15 13 14 14 11 6 8 12 15 13 14 16 14 13 13 14 16 15 14
8 11 13 12 12 13 13 12 12 12 11 9 11 12 13 13 10 11 12 13 13 14
8 10 12 13 13 14 14 15 14 11 10 10 9 11 6 5 6 9 11 12 12 14
12 12 10 12 8 5 8 8 10 8 8 8 10 16 11 6 3 5 9 9 10 11
14 14 11 8 3 5 5 5 6 7 9 15 14 18 17 17 13 12 12 12 12 12
13 12 11 10 12 13 12 16 18 15 13 12 12 11 16 17 14 12 12 11 13 9
Wind_Direction
184 201 210 221 208 208 208 216 224 224 222 215 212 219 204 214 248 258 264 238 172 61
188 201 214 213 201 217 222 227 232 227 231 225 224 211 223 219 227 261 280 236 206 177
201 205 219 216 213 216 236 235 226 230 232 234 233 237 231 257 256 254 270 268 264 246
219 222 219 221 240 243 243 226 225 230 219 218 222 226 225 238 250 258 271 282 271 284
230 236 246 245 243 250 254 235 231 217 224 236 229 228 226 239 244 248 267 274 270 273
248 255 251 247 242 244 246 244 222 222 233 239 232 231 232 237 246 243 255 266 274 272
39 26 354 299 271 249 240 235 234 232 231 231 240 242 244 247 250 246 254 258 263 267
48 46 35 26 20 5 298 262 238 230 237 240 239 237 238 239 242 250 261 263 263 265
85 68 49 40 25 37 27 8 344 279 259 246 239 238 244 241 242 246 255 265 271 271
70 68 59 47 33 29 26 11 8 21 6 316 284 268 257 253 245 248 252 260 269 279
56 78 74 55 38 25 14 10 341 4 354 346 340 349 340 317 278 271 271 270 269 269
50 68 54 73 57 29 20 340 330 343 342 7 7 359 358 27 354 325 315 309 299 292
34 41 34 32 6 47 347 328 342 21 41 69 57 35 35 55 43 32 16 3 2 31
38 39 30 41 40 24 25 35 57 68 56 47 39 24 12 30 37 20 8 9 348 352